Location: Lower Kingswood
(51.2667°N, 0.2167°W)
Time: 18:09:52
(UTC+00:00)

Cosmos 1833 Rocket - Pass Details

Date: 26 September 2023
Orbit: 830 x 841 km, 71.0° (Epoch: 07 December)

Event Time Altitude Azimuth Distance (km) Brightness Sun altitude
Exits shadow 01:17:37 32° 44° (NE) 1,402 4.2 -36.7°
Drops below altitude 10° 01:20:35 10° 34° (NE) 2,450 5.9 -36.5°
Sets 01:23:03 0° 32° (NNE) 3,389 6.8 -36.3°
